Location: Shepherdstown, WV
(39.4326°N, 77.8042°W)
Time: 22:18:15
(UTC-04:00)

Vanguard 1 Rocket - Pass Details

Date: 14 August 2021
Orbit: 650 x 4226 km, 34.3° (Epoch: 16 September)

Event Time Altitude Azimuth Distance (km) Brightness Sun altitude
Rises 03:42:27 0° 180° (S) 7,074 - -26.4°
Exits shadow 03:44:49 - 175° (S) 6,894 11.5 -26.1°
Reaches altitude 10° 03:49:30 10° 164° (SSE) 6,626 11.5 -25.5°
Maximum altitude 04:03:05 19° 127° (SE) 6,527 11.8 -23.7°
Drops below altitude 10° 04:17:48 10° 92° (E) 7,376 12.6 -21.6°
Sets 04:26:06 0° 78° (ENE) 8,147 13.3 -20.4°
